Location: Campestrin
(46.4667°N, 11.7167°E)
Time: 10:51:36
(UTC+00:00)

SME Rocket - Pass Details

Date: 18 April 2021
Orbit: 550 x 2651 km, 99.9° (Epoch: 07 May)

Event Time Altitude Azimuth Distance (km) Brightness Sun altitude
Rises 19:00:00 0° 12° (NNE) 2,738 6.6 -9.6°
Reaches altitude 10° 19:01:59 10° 8° (N) 1,865 5.8 -9.9°
Maximum altitude 19:05:45 58° 289° (WNW) 730 3.8 -10.4°
Drops below altitude 10° 19:10:24 10° 210° (SSW) 2,305 6.0 -11.1°
Sets 19:13:05 0° 207° (SSW) 3,466 6.9 -11.5°
